Wetbulb
73.10 76.92 78.45 78.03 77.80 77.65 77.67 77.44 77.11 77.13 76.75 76.63 76.66 76.81 76.75 76.75 76.93 77.09 76.91 76.84 76.64 76.69 75.90 74.94 73.92 73.02 72.63 72.56 73.37 74.15 74.84 75.04 74.99 74.25 74.44 74.10 73.97 73.89 74.85 74.95 74.23 72.71 73.23
74.00 76.68 78.02 77.78 77.62 77.75 77.70 77.32 77.06 76.88 76.68 76.61 76.68 76.75 76.67 76.82 76.80 76.70 76.61 76.24 76.17 75.58 74.59 73.44 72.39 71.38 70.95 70.84 71.62 72.81 73.45 74.19 74.51 74.74 74.15 73.65 73.70 73.62 73.91 73.89 73.25 72.61 72.46
74.02 76.15 77.62 77.75 77.73 77.72 77.54 77.06 76.73 76.50 76.68 76.46 76.50 76.57 76.74 76.85 76.50 76.33 76.06 75.79 75.51 74.19 72.98 71.87 71.03 69.99 69.20 68.89 69.05 69.43 70.63 71.85 73.03 74.16 73.83 71.28 71.41 73.08 73.33 73.23 73.13 72.37 72.51
74.16 75.09 76.44 77.69 77.57 77.57 77.21 76.83 76.30 76.40 76.65 76.30 76.30 76.70 76.77 76.54 76.35 76.05 75.91 75.69 74.88 73.21 72.06 70.98 70.05 68.99 68.31 67.56 67.13 68.70 69.61 70.18 71.12 70.11 68.91 71.70 69.73 72.91 73.15 73.00 72.68 72.84 72.96
73.55 74.31 76.43 77.74 77.29 77.52 77.24 76.75 76.23 76.45 76.50 76.33 76.40 76.70 76.82 76.39 76.12 75.80 75.71 75.39 74.64 72.66 71.47 70.35 69.75 69.78 69.05 67.62 68.86 68.84 68.57 69.13 70.54 68.75 65.30 65.81 66.67 72.82 73.31 73.31 72.50 72.26 72.86
72.64 74.27 76.95 77.42 77.14 77.12 77.01 76.75 76.40 76.40 76.48 76.43 76.43 76.69 76.66 76.41 75.88 75.64 75.43 75.14 74.50 72.73 71.11 70.65 71.07 70.49 69.71 68.91 69.61 69.06 69.26 70.23 71.30 67.92 67.36 69.26 67.17 73.69 73.94 73.87 73.44 72.95 72.97
71.55 74.96 76.40 77.26 77.33 76.99 77.09 76.96 76.67 76.37 76.32 76.42 76.45 76.72 76.64 76.17 75.55 75.39 75.22 74.91 74.43 73.33 72.44 71.63 71.34 70.73 70.39 70.19 69.75 69.77 70.32 70.87 69.09 68.78 68.75 67.95 68.59 72.53 73.88 73.22 73.02 73.02 72.72
71.48 74.36 75.56 77.24 77.11 76.87 76.93 76.80 76.52 76.33 76.26 76.39 76.23 76.53 76.48 75.95 75.52 75.34 75.02 74.71 74.14 73.20 72.84 72.30 71.64 71.30 70.71 70.61 70.50 70.18 70.73 70.25 68.68 67.52 67.29 69.00 70.28 72.85 73.81 73.25 72.76 72.96 72.70
73.49 73.69 74.39 75.85 76.82 77.00 76.53 76.22 76.27 76.01 76.09 75.91 75.80 75.87 75.93 75.61 75.30 74.86 74.60 74.23 73.47 73.14 72.52 72.25 71.83 71.44 71.19 71.07 70.94 70.90 71.09 70.69 67.35 67.27 67.20 67.61 72.58 73.68 74.21 73.68 73.44 73.07 72.84
73.08 73.28 73.16 74.95 75.62 75.57 75.80 76.32 76.19 76.04 76.00 75.67 75.82 75.67 75.30 75.29 74.88 74.44 73.39 73.31 73.24 73.02 72.65 72.25 71.88 71.69 71.51 71.19 71.07 70.97 71.37 70.81 67.46 66.57 65.12 66.56 72.20 73.89 74.92 74.41 73.86 73.59 73.14
73.02 72.11 72.47 73.74 74.35 74.69 74.58 76.00 75.83 76.45 75.83 75.55 75.60 75.30 74.27 72.23 72.39 72.81 72.41 72.79 72.94 73.04 72.87 72.45 72.15 72.03 71.68 71.78 71.46 71.54 70.80 66.78 66.34 65.04 64.39 69.33 72.77 74.08 74.05 73.86 74.24 73.84 73.62
69.13 70.78 71.52 72.35 72.79 72.95 75.03 74.55 74.10 74.92 74.38 73.99 73.80 73.42 72.10 70.95 70.35 71.51 71.55 72.80 72.57 72.87 72.99 72.69 72.39 72.17 71.83 67.78 66.40 70.51 67.61 66.60 65.79 64.75 64.13 71.10 73.52 74.62 74.87 74.41 73.77 74.11 74.01
66.07 68.04 69.96 71.36 71.61 70.89 73.11 73.49 73.19 73.25 73.05 72.85 72.78 72.26 71.07 70.39 69.75 69.36 67.56 68.70 68.77 71.81 69.42 70.73 70.00 69.44 68.10 66.65 64.93 63.20 66.58 66.21 64.84 64.75 66.50 73.14 73.32 74.52 74.48 74.01 73.94 73.99 74.25
65.88 67.03 69.60 70.78 70.87 70.05 72.48 71.98 71.43 71.63 71.79 71.85 71.79 71.90 70.69 68.45 66.95 67.79 66.97 66.57 67.30 67.29 66.91 65.13 66.44 66.72 66.65 65.43 64.91 64.02 65.05 65.07 65.22 65.65 65.44 73.34 72.60 73.39 73.78 73.40 73.21 73.47 73.81
63.75 66.91 69.76 70.83 70.14 70.03 71.61 70.85 70.41 70.44 70.18 70.55 70.45 71.24 70.52 68.74 68.01 68.02 66.90 66.65 66.77 66.98 66.90 65.62 65.18 65.69 65.84 65.88 65.50 65.09 65.04 64.88 64.90 64.80 65.95 73.27 71.91 72.70 73.58 73.95 73.58 73.54 73.42
63.32 66.06 70.25 70.86 70.65 70.06 71.03 70.71 68.94 69.07 70.18 69.84 70.33 70.60 70.63 68.99 67.95 68.96 68.61 69.23 68.64 68.34 67.90 66.85 65.75 65.37 66.47 66.52 66.29 66.56 66.57 65.97 65.93 65.56 65.96 68.63 72.28 71.77 72.60 73.76 74.14 73.86 73.48
62.68 65.43 68.84 71.03 72.37 70.97 71.89 72.73 72.30 69.35 69.97 70.05 70.23 70.33 70.80 70.64 67.60 67.91 69.72 68.66 69.02 69.11 68.79 67.34 66.68 67.45 67.05 67.22 65.75 65.77 66.23 66.52 66.14 65.79 65.61 65.85 68.80 71.50 71.67 72.42 73.32 73.89 74.09
62.84 63.63 64.98 70.95 71.83 70.87 71.83 72.07 72.16 72.14 71.44 69.87 69.97 70.84 71.19 70.47 71.17 69.59 70.06 69.34 68.78 68.82 68.53 68.14 67.02 66.04 65.92 65.11 64.10 64.50 64.74 65.67 66.24 66.22 66.12 66.29 65.97 67.26 70.69 71.67 72.22 72.95 73.89
62.56 63.45 65.06 68.67 70.79 71.63 71.54 72.60 72.02 71.68 71.78 71.47 70.89 71.94 71.43 70.95 71.80 71.42 70.60 69.36 69.67 68.84 68.65 67.59 67.31 66.59 65.43 65.20 64.97 64.93 66.37 66.63 66.56 67.57 67.06 66.92 66.22 66.84 66.68 69.81 71.11 71.30 72.17
60.22 60.61 62.48 68.06 69.35 70.99 71.36 71.43 71.96 71.01 71.24 70.83 69.82 70.16 72.05 72.35 71.91 71.06 70.59 69.68 69.30 69.05 67.17 66.12 66.30 67.52 65.54 65.04 66.89 67.22 65.50 67.24 67.53 67.51 67.74 67.99 67.43 67.29 67.11 67.21 68.71 69.35 70.83
59.65 59.61 60.20 65.21 67.80 69.87 69.76 69.05 68.57 69.17 69.21 69.28 69.59 69.34 69.45 71.16 72.27 71.35 69.99 70.02 70.18 68.38 66.47 66.40 65.67 65.82 64.47 65.91 64.52 64.93 66.80 68.22 68.57 68.79 68.74 68.00 68.61 68.46 68.17 68.89 68.61 67.78 68.53
56.72 60.21 60.12 60.77 65.49 68.07 68.57 68.68 67.98 68.23 68.95 68.87 68.54 68.60 68.65 68.57 69.77 71.27 71.21 70.16 69.39 67.10 66.13 66.42 65.72 64.66 65.62 66.40 65.60 64.63 63.28 63.93 66.38 68.38 67.60 68.70 68.44 68.89 68.65 68.74 69.60 67.76 68.02
58.06 59.17 60.18 61.45 62.74 65.45 68.59 67.76 67.30 68.66 69.27 68.26 67.43 67.72 68.45 69.00 68.99 69.96 70.25 69.49 68.77 67.02 66.19 65.26 65.79 66.49 65.58 66.24 67.37 65.71 62.02 60.07 63.07 66.16 67.27 67.43 67.78 68.21 68.74 68.35 68.05 68.26 68.76
54.83 57.48 57.82 59.05 59.72 61.10 63.18 67.97 66.35 64.45 66.39 67.92 67.41 66.73 67.18 67.84 68.06 68.72 70.15 70.21 68.08 67.11 66.37 65.79 67.95 68.02 67.54 66.78 66.91 69.69 68.73 66.45 61.87 60.73 66.00 67.50 67.95 68.38 68.05 68.22 68.04 68.99 68.65
56.34 54.86 55.05 55.98 58.04 59.16 59.99 62.15 66.22 66.80 67.03 67.03 67.05 68.26 67.66 66.85 69.52 69.25 69.23 68.97 68.08 66.92 67.13 67.69 66.83 67.33 69.07 68.63 67.92 67.05 67.37 67.90 66.58 63.78 61.20 62.89 66.11 67.20 67.73 68.22 68.00 67.94 68.25
54.26 55.36 54.69 55.36 56.48 57.36 59.50 60.83 61.52 61.78 63.23 64.83 65.20 63.89 65.10 66.66 65.61 66.45 70.32 69.35 68.79 68.10 67.62 68.52 68.65 68.64 67.04 65.34 65.54 63.22 61.56 63.14 65.21 64.63 63.18 62.60 62.27 64.07 66.24 68.24 67.28 67.34 67.79
MSLP
1007.91 1007.69 1007.59 1007.61 1007.95 1008.56 1009.27 1009.90 1010.34 1010.65 1010.97 1011.19 1011.59 1012.10 1012.45 1012.79 1013.15 1013.48 1013.80 1014.10 1014.42 1014.73 1015.03 1015.30 1015.48 1015.58 1015.65 1015.66 1015.68 1015.51 1015.46 1015.55 1015.60 1015.61 1015.64 1015.74 1015.84 1015.99 1016.04 1015.84 1016.01 1016.19 1016.40
1006.77 1007.80 1007.91 1007.83 1007.91 1008.68 1009.39 1010.10 1010.62 1010.95 1011.34 1011.56 1011.94 1012.42 1012.75 1013.09 1013.49 1013.71 1013.95 1014.30 1014.58 1014.87 1015.08 1015.29 1015.46 1015.72 1015.86 1015.84 1015.87 1015.79 1015.72 1015.75 1015.80 1015.79 1015.75 1015.92 1016.00 1016.16 1016.28 1016.35 1016.41 1016.53 1016.62
1006.85 1007.46 1008.16 1008.17 1008.15 1008.74 1009.52 1010.06 1010.54 1011.15 1011.54 1011.86 1012.27 1012.66 1012.93 1013.43 1013.80 1013.96 1014.13 1014.45 1014.67 1014.98 1015.18 1015.34 1015.53 1015.74 1015.83 1015.86 1015.86 1015.89 1015.83 1015.87 1015.94 1015.97 1016.13 1016.19 1016.27 1016.13 1016.23 1016.44 1016.62 1016.63 1016.72
1006.30 1007.23 1008.20 1008.45 1008.29 1008.72 1009.49 1010.28 1010.74 1011.15 1011.69 1012.11 1012.39 1012.78 1013.13 1013.52 1013.96 1014.23 1014.40 1014.61 1014.84 1015.19 1015.39 1015.53 1015.64 1015.80 1015.91 1016.01 1016.02 1015.87 1015.80 1015.89 1016.00 1016.17 1016.18 1016.16 1016.12 1016.31 1016.31 1016.47 1016.60 1016.75 1016.95
1006.40 1006.92 1008.06 1008.61 1008.33 1008.39 1009.35 1010.25 1010.92 1011.46 1011.84 1012.27 1012.62 1012.97 1013.29 1013.53 1013.96 1014.31 1014.58 1014.79 1014.97 1015.23 1015.45 1015.62 1015.71 1015.89 1016.09 1016.15 1016.11 1015.99 1015.89 1016.02 1016.02 1016.02 1016.05 1015.97 1016.05 1016.27 1016.37 1016.50 1016.65 1016.67 1016.84
1006.12 1006.80 1007.95 1008.73 1008.76 1008.28 1008.91 1009.67 1010.77 1011.31 1011.85 1012.39 1012.89 1013.15 1013.46 1013.71 1014.12 1014.40 1014.50 1014.63 1014.97 1015.26 1015.54 1015.62 1015.76 1015.89 1016.01 1016.08 1016.15 1016.15 1016.07 1016.04 1015.94 1015.95 1015.93 1015.95 1015.67 1015.92 1016.30 1016.50 1016.49 1016.57 1016.68
1006.21 1006.58 1007.64 1008.49 1008.87 1008.70 1008.89 1009.55 1010.35 1011.07 1011.71 1012.26 1012.90 1013.38 1013.68 1013.87 1014.26 1014.59 1014.57 1014.88 1015.05 1015.19 1015.42 1015.67 1015.78 1015.85 1015.97 1016.15 1016.22 1016.15 1016.12 1016.15 1016.16 1016.15 1016.15 1016.06 1015.50 1015.64 1015.94 1016.20 1016.47 1016.54 1016.68
1005.30 1006.52 1007.48 1008.42 1008.82 1009.03 1008.93 1009.65 1010.28 1011.26 1011.56 1012.18 1012.71 1013.27 1013.69 1013.96 1014.23 1014.60 1014.74 1014.84 1015.00 1015.11 1015.47 1015.77 1015.99 1016.00 1016.07 1016.14 1016.24 1016.32 1016.14 1016.10 1016.05 1015.98 1015.93 1015.83 1015.48 1015.56 1015.68 1015.95 1016.28 1016.62 1016.66
1005.27 1005.98 1006.85 1007.99 1008.68 1009.17 1009.40 1009.50 1010.11 1010.79 1011.75 1012.24 1012.76 1013.14 1013.68 1013.88 1014.29 1014.46 1014.84 1014.93 1015.17 1015.38 1015.58 1015.77 1016.00 1016.11 1016.13 1016.20 1016.14 1016.15 1016.10 1016.07 1016.01 1015.81 1015.55 1015.65 1015.82 1015.34 1015.47 1015.72 1015.90 1016.30 1016.54
1005.27 1005.83 1006.65 1007.49 1008.46 1009.11 1009.74 1009.91 1010.21 1010.79 1011.44 1012.26 1012.84 1013.09 1013.43 1013.82 1014.23 1014.55 1014.86 1015.07 1015.21 1015.43 1015.67 1015.74 1015.86 1015.91 1016.11 1016.15 1016.15 1016.17 1016.12 1015.95 1015.92 1015.62 1015.20 1015.32 1015.35 1015.15 1015.17 1015.39 1015.59 1015.88 1016.30
1005.59 1005.85 1006.63 1007.44 1008.44 1009.10 1009.71 1010.25 1010.49 1010.82 1011.31 1011.94 1012.80 1013.11 1013.39 1013.79 1014.11 1014.54 1014.81 1015.10 1015.25 1015.38 1015.61 1015.53 1015.60 1015.82 1016.04 1015.93 1015.98 1015.93 1015.92 1015.84 1015.74 1015.34 1015.04 1014.94 1015.02 1015.08 1014.95 1015.12 1015.27 1015.44 1015.90
1006.30 1007.07 1006.18 1006.86 1008.02 1008.95 1009.41 1010.16 1010.73 1010.76 1011.23 1011.90 1012.54 1013.06 1013.35 1013.69 1014.01 1014.39 1014.58 1014.83 1014.98 1015.22 1015.39 1015.42 1015.44 1015.68 1015.77 1015.81 1015.77 1015.74 1015.68 1015.49 1015.49 1015.06 1014.78 1014.46 1014.58 1014.70 1014.65 1014.81 1014.92 1015.03 1015.38
1005.85 1006.94 1007.56 1006.83 1007.24 1008.44 1009.06 1009.81 1010.63 1010.92 1011.18 1011.70 1012.09 1012.67 1013.00 1013.39 1013.74 1013.92 1014.26 1014.47 1014.84 1014.82 1015.11 1015.25 1015.32 1015.44 1015.45 1015.60 1015.57 1015.50 1015.34 1015.43 1015.28 1014.89 1014.44 1014.30 1014.31 1014.30 1014.34 1014.54 1014.68 1014.82 1015.05
1005.47 1006.06 1006.78 1007.77 1006.98 1007.74 1008.79 1009.64 1010.00 1010.92 1010.85 1011.17 1011.59 1012.13 1012.63 1012.90 1013.29 1013.56 1013.98 1014.12 1014.36 1014.45 1014.82 1014.88 1014.95 1014.85 1014.95 1014.91 1015.08 1015.05 1015.10 1015.02 1014.84 1014.46 1014.17 1014.01 1014.12 1014.43 1014.35 1014.44 1014.49 1014.56 1014.75
1005.06 1005.51 1005.95 1006.84 1007.58 1007.07 1008.08 1009.13 1009.67 1010.31 1010.81 1010.93 1011.13 1011.49 1011.86 1012.39 1012.86 1013.00 1013.16 1013.66 1013.88 1013.96 1014.15 1014.27 1014.40 1014.35 1014.25 1014.18 1014.43 1014.42 1014.16 1014.28 1014.34 1014.24 1013.97 1013.74 1013.83 1013.92 1013.89 1014.06 1014.12 1014.16 1014.38
1004.83 1005.11 1005.23 1006.35 1007.02 1007.64 1007.58 1008.33 1009.13 1009.54 1009.86 1010.65 1010.96 1011.08 1011.55 1011.85 1012.20 1012.59 1012.86 1013.06 1013.15 1013.25 1013.40 1013.61 1013.93 1014.11 1014.05 1013.89 1014.11 1013.99 1013.89 1013.75 1013.57 1013.45 1013.41 1013.52 1013.57 1013.57 1013.63 1013.71 1013.74 1013.80 1013.93
1004.75 1005.28 1005.05 1005.87 1006.70 1007.15 1007.69 1008.13 1008.79 1009.27 1009.63 1009.97 1010.24 1010.64 1011.09 1011.72 1012.00 1012.19 1012.61 1012.52 1012.57 1012.85 1013.07 1013.42 1013.68 1013.71 1013.92 1013.90 1013.82 1013.77 1013.51 1013.38 1013.22 1013.19 1013.03 1013.16 1013.23 1013.30 1013.30 1013.27 1013.21 1013.32 1013.59
1004.71 1005.47 1006.02 1005.77 1005.99 1006.69 1007.09 1007.52 1008.07 1008.80 1009.33 1009.63 1009.75 1009.86 1010.24 1010.98 1011.33 1011.62 1012.27 1012.32 1012.22 1012.36 1012.60 1013.16 1013.35 1013.53 1013.65 1013.71 1013.72 1013.47 1013.39 1013.13 1012.93 1012.73 1012.66 1012.56 1012.69 1012.76 1012.90 1012.90 1012.80 1012.88 1013.09
1004.74 1005.20 1006.33 1006.60 1006.58 1006.19 1006.55 1006.82 1007.43 1007.76 1008.62 1009.37 1009.55 1009.17 1010.18 1010.35 1010.85 1011.02 1011.53 1011.94 1012.01 1012.28 1012.48 1012.78 1012.98 1013.22 1013.36 1013.16 1013.25 1013.11 1013.05 1012.94 1012.63 1012.12 1012.27 1012.05 1012.05 1012.05 1012.20 1012.23 1012.28 1012.25 1012.44
1004.85 1005.17 1005.64 1006.47 1006.82 1006.74 1006.26 1006.58 1007.25 1007.90 1007.62 1008.32 1009.33 1008.91 1010.15 1009.96 1010.71 1010.64 1011.22 1011.50 1011.62 1012.06 1012.22 1012.52 1012.98 1013.10 1013.08 1013.15 1013.25 1012.88 1012.53 1012.07 1011.97 1011.89 1011.64 1011.47 1011.56 1011.62 1011.69 1011.74 1012.00 1011.84 1011.84
1005.31 1005.61 1005.67 1006.21 1006.91 1007.09 1007.13 1007.04 1007.48 1007.54 1007.76 1007.88 1007.72 1008.38 1008.68 1010.24 1010.50 1010.19 1010.82 1011.21 1011.49 1011.74 1012.02 1012.21 1012.59 1013.05 1013.34 1013.23 1013.20 1012.54 1012.06 1011.44 1011.18 1011.23 1010.83 1010.91 1011.16 1011.05 1011.27 1011.36 1011.32 1011.58 1011.37
1005.44 1005.80 1006.26 1006.42 1006.68 1007.21 1007.41 1007.69 1007.56 1007.50 1007.43 1007.51 1007.54 1007.52 1008.56 1009.60 1009.58 1010.03 1010.51 1010.90 1011.20 1011.65 1011.74 1011.89 1012.14 1012.83 1013.06 1013.34 1013.91 1013.62 1013.06 1011.15 1010.45 1010.37 1010.58 1010.64 1010.62 1010.63 1010.85 1010.62 1010.86 1011.06 1011.12
1005.50 1005.97 1006.39 1006.66 1006.74 1006.78 1007.31 1007.47 1007.47 1007.67 1007.23 1007.68 1008.45 1008.62 1006.97 1008.23 1008.75 1009.63 1010.22 1010.44 1010.64 1010.75 1011.66 1011.71 1011.91 1012.07 1012.69 1012.76 1013.47 1013.82 1013.60 1012.62 1011.13 1010.60 1010.48 1010.49 1010.38 1010.28 1010.54 1010.53 1010.28 1010.47 1010.69
1005.13 1005.69 1006.21 1006.73 1007.09 1007.20 1007.08 1007.55 1007.73 1007.97 1007.61 1006.97 1007.56 1008.42 1008.57 1008.01 1008.38 1009.34 1009.75 1009.81 1009.77 1010.36 1011.24 1011.15 1011.52 1011.13 1012.18 1012.31 1012.44 1012.13 1012.44 1012.62 1011.65 1010.98 1010.78 1010.46 1010.14 1010.02 1010.20 1010.44 1010.20 1010.04 1010.11
1004.97 1005.52 1006.15 1006.70 1007.11 1007.33 1007.54 1007.64 1007.85 1007.97 1008.10 1008.18 1007.34 1008.35 1008.90 1008.37 1007.90 1008.77 1009.02 1009.68 1009.03 1009.98 1010.27 1010.12 1010.68 1010.91 1011.30 1011.28 1011.54 1011.25 1012.26 1012.37 1010.99 1011.15 1011.23 1010.56 1010.24 1009.78 1009.80 1010.01 1009.96 1009.83 1009.71
1005.16 1005.73 1006.14 1006.56 1006.93 1007.19 1007.27 1007.41 1007.76 1007.95 1008.11 1008.24 1008.08 1007.19 1008.20 1008.19 1008.64 1008.70 1009.02 1008.24 1008.28 1008.54 1009.30 1010.03 1009.79 1010.38 1010.43 1010.45 1010.67 1010.49 1012.04 1013.22 1011.32 1010.40 1010.83 1010.53 1010.23 1009.60 1009.82 1009.81 1009.67 1009.47 1009.30
Wind_Speed
5 9 17 20 21 20 18 17 16 16 16 17 17 16 16 16 17 17 17 16 14 13 13 11 10 9 9 10 10 11 10 9 9 10 11 10 11 11 9 11 10 10 9
16 9 15 19 22 21 19 18 16 16 16 17 17 16 16 16 15 15 15 14 13 12 12 11 10 8 8 9 8 7 6 6 5 6 8 8 9 10 10 12 11 8 8
15 12 11 17 21 22 19 18 18 16 16 17 17 16 16 14 14 14 14 13 12 12 11 10 9 8 7 7 5 3 4 3 2 2 3 3 3 9 10 9 9 8 8
18 12 8 16 21 22 20 17 17 17 17 17 17 16 15 14 13 12 12 12 12 11 10 9 9 7 6 5 2 1 0 1 1 2 2 3 1 6 9 8 7 7 6
16 13 10 14 20 23 21 18 16 16 16 16 16 16 15 15 13 12 11 11 11 10 9 8 8 7 5 3 1 2 3 4 4 5 4 4 6 6 8 6 6 7 4
16 14 15 13 16 22 23 22 17 17 16 16 15 15 14 14 12 11 12 11 10 10 8 8 8 6 5 3 2 4 5 5 7 5 5 2 7 10 8 6 8 8 6
16 15 16 16 15 19 22 21 20 16 16 16 15 14 13 13 11 9 10 9 9 9 8 8 7 6 5 3 3 4 5 7 6 5 5 4 7 13 11 9 7 7 6
20 16 16 16 15 16 21 21 21 16 16 15 15 14 13 12 11 9 9 9 9 9 8 7 6 5 5 5 4 5 5 7 7 6 5 2 9 13 13 11 8 6 6
17 18 17 14 14 15 17 21 21 21 15 14 13 13 12 12 11 10 8 8 7 6 6 6 6 5 6 6 6 7 6 9 6 4 7 3 10 14 13 12 11 8 7
16 16 16 15 12 11 10 18 20 20 19 15 14 13 13 12 11 9 9 7 7 7 6 7 7 8 7 7 8 8 9 11 6 7 5 3 14 15 15 13 12 10 8
12 15 15 15 12 10 9 11 17 20 19 18 14 14 11 5 6 7 8 9 8 8 8 9 10 8 8 9 10 11 12 4 6 6 4 8 16 15 14 14 13 12 10
8 4 15 17 15 11 10 10 7 12 9 9 9 8 5 6 6 7 9 10 11 10 10 10 10 9 9 4 4 12 5 6 6 7 5 10 17 15 14 14 14 13 12
9 4 6 14 16 13 11 9 4 4 6 6 10 9 7 5 5 5 4 4 4 10 4 7 5 4 6 5 5 5 6 6 5 6 6 9 15 17 14 13 13 13 12
8 9 12 9 16 14 9 8 8 6 6 7 9 10 8 4 5 5 4 6 6 4 6 5 4 6 8 8 8 7 7 6 5 6 5 13 13 13 13 13 13 13 12
9 7 13 13 10 14 14 9 9 9 6 7 8 9 8 7 6 5 6 6 6 5 7 7 7 7 8 8 8 8 7 7 7 4 3 13 15 15 15 15 14 14 13
7 7 14 14 10 7 11 11 8 6 10 8 7 8 7 7 6 7 5 7 6 7 7 7 6 7 7 7 8 8 9 7 7 6 4 5 14 14 13 14 15 15 15
6 6 11 11 12 11 8 8 5 7 7 9 9 10 11 7 7 5 5 5 5 4 6 4 5 4 4 3 6 5 5 7 7 7 6 5 5 13 15 15 16 15 15
7 10 2 3 10 10 10 8 7 5 4 7 7 10 14 12 8 8 5 5 4 4 2 3 4 4 3 3 3 5 5 5 7 7 7 6 5 5 11 16 16 16 16
8 7 8 1 5 10 9 7 5 8 6 3 3 6 11 12 10 6 5 5 5 4 4 4 3 3 4 5 4 5 6 8 7 6 9 8 7 6 4 10 17 16 16
8 8 6 5 4 6 7 7 5 3 6 6 4 5 8 8 9 6 4 5 5 4 4 2 2 4 3 3 4 6 5 6 6 7 8 7 6 7 7 8 5 8 16
8 6 5 5 2 1 1 4 4 6 3 2 7 6 5 5 7 9 6 5 5 5 5 6 3 4 2 2 3 6 8 8 8 8 8 6 6 7 6 7 5 4 6
7 6 4 2 2 2 1 2 1 3 2 5 3 7 8 8 7 7 8 8 6 3 5 5 5 1 2 2 3 2 6 5 4 8 3 5 7 5 6 7 7 6 6
10 9 5 2 2 1 3 1 3 2 2 2 2 6 5 7 6 8 8 6 7 5 6 5 3 6 5 2 6 4 4 6 2 3 4 3 6 4 4 5 6 6 6
9 9 9 6 4 1 3 3 6 4 5 5 4 1 4 7 4 6 9 11 9 6 8 5 5 5 4 6 2 5 14 8 3 4 3 4 6 5 5 4 5 5 7
9 8 8 7 4 3 2 5 5 4 4 2 2 5 4 0 8 8 7 7 8 6 5 5 5 5 5 4 5 4 9 12 4 4 4 4 2 4 5 6 6 5 6
8 8 8 8 5 5 4 4 5 6 5 3 5 4 6 3 2 4 9 11 9 9 7 8 7 7 7 5 4 7 5 17 8 3 4 5 4 4 4 5 5 4 4
Wind_Direction
142 150 147 137 130 129 131 131 127 121 119 114 108 104 100 95 94 96 98 100 100 104 108 104 93 81 75 74 71 72 74 78 82 90 90 88 85 73 57 35 115 92 91
134 149 151 143 135 134 134 134 131 127 124 119 115 113 107 107 109 111 110 110 112 118 118 113 105 94 81 78 71 75 84 80 85 105 108 103 101 94 77 69 85 95 96
131 137 153 148 139 135 136 138 136 133 128 124 122 121 119 120 121 120 118 120 121 124 121 116 110 101 91 87 89 88 89 78 63 71 132 122 113 110 98 94 101 108 105
137 135 147 157 143 136 137 137 138 135 136 132 131 129 128 128 128 127 125 125 125 125 120 117 111 106 103 103 116 193 45 83 17 349 275 247 198 125 113 111 118 113 114
137 136 150 162 149 139 137 137 139 140 139 136 136 135 137 136 137 135 130 129 130 130 127 124 118 112 111 119 165 276 307 336 344 316 270 288 152 141 132 132 142 137 147
141 140 148 163 156 142 142 140 143 145 142 139 141 141 142 139 141 142 140 139 138 133 136 136 128 130 140 156 230 285 309 322 318 301 298 222 146 146 149 149 116 139 137
155 141 149 158 158 149 143 142 141 146 143 142 144 144 142 140 143 148 142 141 142 144 152 148 145 153 164 191 239 266 298 315 318 307 306 231 145 155 158 153 147 150 157
152 146 148 154 156 156 146 144 141 141 141 143 145 146 145 143 147 153 152 154 155 154 153 150 161 178 188 215 240 266 289 298 308 308 319 253 179 167 163 159 160 170 173
152 146 149 151 156 157 151 145 143 140 141 140 142 142 145 147 155 158 161 158 160 160 162 169 184 207 219 232 246 263 274 286 288 271 283 225 214 176 173 169 167 179 191
149 146 148 143 147 151 156 147 144 142 140 141 146 145 147 152 158 163 167 175 169 172 185 192 208 215 227 239 252 259 267 270 274 278 269 235 201 193 179 179 180 180 196
144 144 144 140 141 141 144 154 145 145 145 145 149 149 148 150 159 168 173 187 182 190 202 206 219 219 232 235 246 247 254 253 260 263 269 237 202 205 189 187 189 185 195
94 136 153 146 146 152 154 155 152 151 148 149 149 158 159 166 168 178 189 200 191 199 208 220 223 224 233 230 242 255 243 241 250 261 259 260 201 199 190 192 193 190 193
118 114 172 156 152 161 155 152 156 156 150 156 159 166 170 177 181 188 186 184 187 207 204 217 229 216 223 226 240 230 229 235 246 259 264 224 197 201 197 196 195 196 195
104 139 158 194 160 162 140 164 156 169 170 171 175 169 174 174 187 189 180 185 188 195 207 210 209 213 226 226 233 241 225 223 227 249 271 214 196 206 203 208 205 200 197
119 146 153 166 193 163 148 163 166 169 179 184 176 174 172 182 186 190 184 183 193 190 202 217 216 215 225 226 234 241 243 226 232 229 215 199 199 203 206 210 210 204 201
131 158 143 163 175 167 154 155 173 166 176 172 183 180 168 183 188 195 194 191 196 203 209 212 210 217 226 223 230 232 239 246 247 255 255 204 211 208 212 214 217 214 209
160 128 139 159 172 166 141 131 137 175 180 181 178 176 185 182 194 200 214 214 207 195 211 203 236 241 246 233 239 248 249 248 242 241 240 227 212 215 215 218 221 222 216
141 118 4 191 162 176 159 153 150 135 149 202 181 183 182 195 186 193 200 217 210 236 228 201 201 214 227 245 265 270 262 257 249 236 240 226 220 206 219 225 225 228 221
129 100 110 339 213 176 148 147 171 159 149 152 197 159 195 193 197 178 185 195 202 212 209 213 233 198 221 240 246 255 265 259 246 242 238 229 218 219 203 222 223 224 220
120 112 91 102 357 237 173 152 150 202 157 149 206 140 177 188 200 178 201 203 198 200 222 211 218 243 224 240 276 269 257 248 242 240 227 226 215 217 223 233 214 222 218
106 97 98 110 220 66 296 150 166 178 213 202 166 183 120 192 197 194 209 200 204 204 192 199 208 228 297 266 312 279 267 254 247 243 235 212 212 206 223 226 207 215 213
132 130 128 141 164 209 320 309 134 211 174 199 243 160 178 194 191 197 205 212 198 186 209 208 195 67 237 129 269 318 309 308 268 249 221 207 213 210 226 224 216 190 207
146 151 137 145 160 174 257 288 1 335 102 106 214 250 167 192 187 206 200 192 197 169 225 213 170 173 259 164 218 228 311 270 346 327 255 228 216 216 246 245 203 198 193
151 132 119 110 105 124 198 245 226 246 245 191 153 230 240 197 196 203 199 202 183 174 211 185 203 157 196 248 241 219 247 241 239 314 326 251 231 220 214 223 203 211 217
145 140 141 146 157 233 225 193 214 226 230 303 133 146 263 279 160 194 184 199 181 201 201 180 219 223 203 239 211 251 302 284 217 173 265 282 274 236 214 207 214 211 230
123 148 162 154 185 209 221 222 209 210 229 265 236 183 204 190 284 297 202 190 194 190 190 204 199 189 172 194 251 310 262 283 277 189 208 247 220 261 236 227 227 212 232